Location: ?????????
(38.0736°N, 23.2119°E)
Time: 13:22:25
(UTC+00:00)

USA 229 - Visible Passes

Search period start: 12 July 2024 00:00
Search period end: 22 July 2024 00:00
Orbit: 890 x 1322 km, 63.4° (Epoch: 18 May)

Date Brightness Start Highest point End Pass type
(mag) Time Alt. Az. Time Alt. Az. Time Alt. Az.
12 Jul 4.9 00:40:18 19° W 00:43:28 28° NW 00:49:09 10° NNE visible
12 Jul 4.7 22:09:08 28° E 22:09:08 28° E 22:13:06 10° NE visible
12 Jul 4.2 23:56:33 36° W 23:58:12 43° NW 00:04:30 10° NNE visible
13 Jul 5.9 01:48:57 10° NW 01:51:11 12° NNW 01:53:28 10° N visible
13 Jul 5.4 21:25:21 15° E 21:25:21 15° E 21:27:06 10° ENE visible
13 Jul 3.5 23:12:46 67° WNW 23:13:07 68° NW 23:19:42 10° NNE visible
14 Jul 5.7 01:01:37 10° WNW 01:05:26 16° NNW 01:09:26 10° N visible
14 Jul 3.5 22:28:56 67° ENE 22:28:56 67° ENE 22:34:45 10° NE visible
15 Jul 5.3 00:16:20 15° W 00:19:52 23° NW 00:25:03 10° NNE visible
15 Jul 4.3 21:45:03 37° E 21:45:03 37° E 21:49:33 10° NE visible
15 Jul 4.7 23:32:27 27° W 23:34:30 33° NW 23:40:28 10° NNE visible
16 Jul 5.0 21:01:08 21° E 21:01:08 21° E 21:03:58 10° ENE visible
16 Jul 4.0 22:48:31 49° WNW 22:49:18 52° NW 22:55:46 10° NNE visible
17 Jul 5.9 00:39:02 10° NW 00:42:00 13° NNW 00:45:07 10° N visible
17 Jul 5.5 20:17:08 11° ENE 20:17:08 11° ENE 20:17:24 10° ENE visible
17 Jul 3.4 22:04:31 81° NNW 22:04:31 81° NNW 22:10:55 10° NNE visible
17 Jul 5.7 23:52:04 10° WNW 23:56:21 18° NW 00:00:53 10° N visible
18 Jul 3.7 21:20:27 54° E 21:20:27 54° E 21:25:52 10° NE visible
18 Jul 5.2 23:07:50 19° W 23:10:51 27° NW 23:16:24 10° NNE visible
19 Jul 4.4 20:36:18 31° E 20:36:18 31° E 20:40:32 10° NE visible
19 Jul 4.5 22:23:40 32° W 22:25:33 40° NW 22:31:46 10° NNE visible
20 Jul 6.2 00:16:50 10° NW 00:18:38 11° NNW 00:20:31 10° N visible
20 Jul 5.0 19:52:02 18° E 19:52:02 18° E 19:54:41 10° ENE visible
20 Jul 3.7 21:39:23 54° W 21:40:27 63° NW 21:47:01 10° NNE visible
20 Jul 5.9 23:29:17 10° WNW 23:32:53 15° NNW 23:36:38 10° N visible
21 Jul 3.3 20:54:57 73° S 20:55:31 81° ESE 21:02:05 10° NE visible
21 Jul 5.6 22:42:36 10° W 22:47:17 21° NW 22:52:17 10° N visible
